Temp
12 12 11 11 11 10 10 10 10 10 10 10 10 10 10 9 9 9 9 9 9 9 9 9 8 8 8 8 8 8 8 8 8 7 7 7 7 7 7 7 7 7 7 7 7 6 6 6 6 6 6 6 6 6 6 6 6 6 6 7 7 7 7 7 7 7 8 8 8
11 11 10 10 10 10 10 9 9 9 9 9 9 9 9 9 9 9 9 8 8 8 8 8 8 8 8 8 8 8 8 7 7 7 7 7 7 7 7 7 7 7 6 6 6 6 6 6 6 6 6 6 6 6 6 6 6 6 6 6 7 7 7 7 7 7 7 7 8
11 10 10 10 10 10 9 9 9 9 9 9 9 9 9 8 8 8 8 8 8 8 8 8 8 8 8 8 7 7 7 7 7 7 7 7 7 7 7 7 7 6 6 6 6 6 6 6 6 6 6 6 6 6 6 6 6 6 6 6 6 7 7 7 7 7 7 7 7
11 10 10 9 9 9 9 9 9 9 9 9 9 8 8 8 8 8 8 8 8 8 8 8 8 7 7 7 7 7 7 7 7 7 7 6 6 6 6 6 6 6 6 6 6 6 6 6 6 6 6 6 6 6 6 6 6 6 6 6 6 6 7 7 7 7 7 7 7
10 9 9 9 9 9 9 9 9 9 9 9 8 8 8 8 8 8 8 8 8 8 8 8 7 7 7 7 6 7 7 7 6 6 6 6 6 6 6 6 6 6 6 6 6 5 5 5 5 5 5 5 5 5 5 6 6 6 6 6 6 6 6 6 7 7 7 7 7
9 9 9 9 9 9 9 9 9 9 8 8 8 8 8 8 8 8 8 8 8 8 7 7 7 7 6 6 6 6 6 6 6 6 6 6 6 6 6 6 5 5 5 5 5 5 5 5 5 5 5 5 5 5 5 5 5 5 5 6 6 6 6 6 6 6 7 7 7
9 9 9 9 9 9 8 8 8 8 8 7 7 8 8 8 8 8 7 7 7 7 7 7 7 7 6 6 6 6 6 6 6 6 6 6 5 5 5 5 5 5 5 5 5 5 5 5 5 5 5 5 5 5 5 5 5 5 5 5 5 6 6 6 6 6 6 6 6
9 9 9 9 8 8 8 8 8 7 7 7 7 7 7 7 7 7 7 7 7 7 7 7 6 6 6 6 6 6 6 6 6 5 5 5 5 5 5 5 5 5 5 5 5 5 5 5 5 5 5 5 5 5 5 5 5 5 5 5 5 5 5 5 5 6 6 6 6
9 9 9 8 8 8 8 7 7 7 7 7 7 7 7 7 7 7 7 7 7 6 6 6 6 6 6 6 6 6 5 5 5 5 5 5 5 5 5 5 5 5 5 5 5 5 5 5 5 5 5 5 5 5 5 5 5 5 5 5 5 5 5 5 5 5 5 5 5
9 9 9 8 8 8 7 7 7 7 7 7 7 7 7 7 7 6 6 6 6 6 6 6 6 6 6 6 5 5 5 5 5 5 5 5 5 5 5 5 5 5 5 5 5 5 5 5 5 5 5 5 5 5 5 5 5 5 5 5 5 5 5 5 5 5 5 5 5
9 9 9 8 8 8 7 7 7 7 7 7 7 7 7 7 7 6 6 6 6 6 6 6 6 6 6 6 5 5 5 5 5 5 5 5 5 5 5 5 5 5 5 5 5 5 5 5 5 4 4 4 4 4 4 4 4 4 4 4 4 4 4 4 4 5 5 5 5
9 8 8 8 8 7 7 7 7 7 7 7 7 7 7 7 7 7 6 6 6 6 6 6 6 6 6 6 6 6 5 5 5 5 5 5 5 5 5 5 5 5 5 5 5 4 4 4 4 4 4 4 4 4 4 4 4 4 4 4 4 4 4 4 4 4 4 4 5
8 8 8 8 7 7 7 7 7 7 7 7 7 7 7 7 7 7 7 7 7 7 6 6 6 6 6 6 6 6 5 5 5 5 5 5 5 5 5 5 5 5 4 4 4 4 4 4 4 4 4 4 4 4 4 4 4 4 4 4 4 4 4 4 4 4 4 4 4
8 8 8 7 7 7 7 7 7 7 7 7 7 6 7 7 7 7 7 7 7 6 6 6 6 6 6 6 5 5 5 5 5 5 5 5 5 5 5 4 4 4 4 4 4 4 4 4 4 4 4 4 4 3 3 3 3 3 3 3 3 3 3 3 4 4 4 4 4
8 7 7 7 7 7 7 7 7 7 6 6 6 6 7 7 7 7 6 6 6 6 6 6 6 6 5 5 5 5 5 5 5 5 5 5 4 4 4 4 4 4 4 4 4 4 3 3 3 3 3 3 3 3 3 3 3 3 3 3 3 3 3 3 3 3 3 3 3
8 7 7 7 7 7 7 6 6 6 6 6 6 7 7 7 7 6 6 6 6 6 6 5 5 5 5 5 5 5 5 4 4 4 4 4 4 4 4 4 4 4 4 4 4 3 3 3 3 3 3 3 3 3 3 3 3 3 3 3 3 3 3 3 3 3 3 3 3
7 7 7 7 7 7 6 6 6 6 6 6 7 7 7 7 6 6 6 6 6 5 5 5 5 5 5 5 4 4 4 4 4 4 4 4 4 4 4 4 4 4 4 4 3 3 3 3 3 3 3 3 3 3 3 3 3 3 3 2 2 2 2 2 2 2 2 2 2
7 7 7 7 7 6 6 6 6 6 6 7 7 7 6 6 6 6 6 6 5 5 5 5 5 4 4 4 4 4 4 4 4 4 4 4 4 4 4 4 3 3 3 3 3 3 3 3 3 3 3 3 3 2 2 2 2 2 2 2 2 2 2 1 1 1 1 1 1
7 7 7 7 7 7 7 7 7 7 7 7 7 6 6 6 6 6 5 5 5 5 5 5 4 4 4 4 4 4 4 4 4 3 3 3 3 3 3 3 3 3 3 3 3 3 3 3 3 3 2 2 2 2 2 2 2 2 2 1 1 1 1 1 0 0 0 0 0
7 7 7 7 7 7 7 7 7 7 7 7 6 6 6 6 6 5 5 5 5 5 5 4 4 4 4 4 4 4 4 4 4 3 3 3 3 3 3 3 3 3 3 3 3 3 3 2 2 2 2 2 2 2 2 2 2 1 1 1 0 0 0 -0 -0 -0 -1 -1 -1
8 7 7 7 7 7 7 7 7 7 7 6 6 6 6 5 5 5 5 5 5 5 4 4 4 4 4 4 4 4 4 4 3 3 3 3 3 3 3 3 3 3 2 2 2 2 2 2 2 2 2 2 2 2 2 1 1 1 0 0 -0 -0 -1 -1 -1 -1 -1 -1 -1
7 7 7 7 7 7 7 7 7 7 6 6 6 6 5 5 5 5 5 5 4 4 4 4 4 4 4 4 4 4 4 3 3 3 3 3 2 2 2 2 2 2 2 2 2 2 2 2 2 2 2 2 2 2 1 1 0 0 -0 -1 -1 -1 -1 -2 -2 -2 -2 -2 -2
7 7 7 7 7 7 7 7 6 6 6 6 6 5 5 5 5 5 5 5 5 4 4 4 4 4 4 4 4 3 3 3 3 3 2 2 2 2 2 2 2 2 2 2 2 2 2 2 2 2 2 2 2 1 1 0 -0 -1 -1 -1 -1 -2 -2 -2 -2 -2 -2 -2 -2
7 7 7 7 7 7 7 6 6 6 6 6 6 6 5 5 5 5 5 5 5 4 4 4 4 4 4 3 3 3 3 3 3 2 2 2 2 2 2 2 2 2 2 2 2 2 2 2 2 2 1 1 1 1 0 -0 -1 -1 -1 -2 -2 -2 -2 -2 -2 -2 -2 -2 -2
7 7 7 7 7 6 6 6 6 6 6 6 6 6 6 5 5 5 5 5 4 4 4 4 4 4 3 3 3 3 3 3 2 2 2 2 2 2 2 2 2 2 2 2 2 1 1 1 1 1 1 1 0 -0 -1 -1 -1 -2 -2 -2 -2 -3 -3 -3 -3 -3 -3 -2 -2
6 6 6 6 6 6 6 6 6 6 6 6 6 6 6 5 5 5 5 5 4 4 4 4 3 3 3 3 3 3 2 2 2 2 2 2 2 2 2 2 2 2 2 2 1 1 1 1 1 0 0 -0 -1 -1 -1 -2 -2 -2 -3 -3 -3 -3 -3 -3 -3 -3 -3 -3 -3
6 6 6 6 6 6 6 6 6 6 6 6 6 6 5 5 5 5 5 4 4 4 4 4 3 3 3 3 3 3 2 2 2 2 2 2 2 2 2 2 2 2 2 2 1 1 1 1 1 0 -0 -1 -1 -2 -2 -2 -2 -3 -3 -3 -3 -3 -3 -3 -3 -3 -2 -2 -2
6 6 6 6 6 6 6 6 6 6 6 6 6 5 5 5 5 5 4 4 4 4 4 4 3 3 3 3 3 3 3 3 3 3 3 2 2 2 2 2 2 2 2 2 1 1 1 1 0 -0 -1 -1 -2 -2 -2 -3 -3 -3 -3 -3 -3 -3 -3 -3 -3 -3 -3 -2 -2
6 6 6 6 6 6 6 6 6 6 5 5 5 5 5 5 5 4 4 4 4 4 4 4 4 3 3 3 3 3 3 3 3 3 3 2 2 2 2 2 2 2 2 2 1 1 1 0 -0 -1 -2 -2 -2 -3 -3 -3 -3 -3 -3 -3 -3 -3 -3 -3 -3 -3 -2 -2 -2
6 6 6 6 6 6 6 5 5 5 5 5 5 5 5 4 4 4 4 4 4 4 4 4 4 3 3 3 3 3 3 3 3 3 3 3 2 2 2 2 2 2 2 1 1 1 -0 -1 -1 -2 -2 -2 -3 -3 -3 -3 -3 -3 -3 -3 -3 -3 -3 -3 -3 -2 -2 -2 -2
6 6 6 6 6 6 5 5 5 5 5 5 5 4 4 4 4 4 4 4 4 4 4 4 3 3 3 3 3 3 3 3 3 3 3 2 2 2 2 2 2 1 1 1 0 -0 -1 -1 -2 -2 -3 -3 -3 -3 -3 -3 -3 -3 -3 -3 -3 -3 -3 -3 -3 -3 -2 -2 -2
6 6 6 6 6 6 5 5 5 5 5 4 4 4 4 4 4 4 4 4 4 4 3 3 3 3 3 3 3 3 3 3 3 2 2 2 2 2 2 1 1 1 1 0 -0 -1 -2 -2 -2 -3 -3 -3 -3 -4 -4 -4 -4 -4 -3 -3 -3 -3 -3 -3 -3 -3 -2 -2 -2
6 6 6 6 6 6 5 5 5 5 4 4 4 4 4 4 4 4 4 3 3 3 3 3 3 3 3 3 3 3 3 2 2 2 2 2 1 1 1 1 1 0 -0 -1 -1 -2 -2 -3 -3 -3 -3 -3 -3 -4 -4 -3 -4 -3 -3 -3 -3 -3 -3 -3 -3 -3 -2 -2 -2
6 6 6 6 6 5 5 5 5 4 4 4 4 4 4 4 3 3 3 3 3 3 3 3 3 3 3 3 3 2 2 2 2 2 1 1 1 1 1 1 0 -0 -1 -1 -2 -2 -3 -3 -3 -3 -3 -3 -3 -3 -3 -3 -3 -3 -3 -3 -3 -3 -3 -3 -3 -2 -2 -2 -2
6 6 6 5 5 5 5 5 4 4 4 4 4 4 3 3 3 3 3 3 3 3 3 3 3 3 3 2 2 2 2 2 1 1 1 1 1 0 0 -0 -0 -1 -1 -2 -2 -3 -3 -3 -3 -3 -3 -3 -3 -3 -3 -3 -3 -3 -3 -3 -3 -3 -3 -2 -2 -2 -2 -2 -2
6 6 5 5 5 5 4 4 4 4 4 4 3 3 3 3 3 3 3 3 3 3 3 3 3 2 2 2 2 2 2 1 1 1 1 0 0 -0 -0 -1 -1 -2 -2 -2 -3 -3 -3 -3 -3 -3 -3 -3 -3 -3 -3 -3 -3 -3 -3 -3 -3 -2 -2 -2 -2 -2 -2 -2 -2
6 6 5 5 5 4 4 4 4 4 4 4 3 3 3 3 3 3 3 3 3 3 3 2 2 2 2 2 2 2 1 1 1 1 0 -0 -0 -1 -1 -2 -2 -2 -2 -3 -3 -3 -3 -3 -3 -3 -3 -3 -3 -3 -3 -3 -3 -3 -3 -2 -2 -2 -2 -2 -2 -2 -2 -2 -2
6 5 5 5 5 5 4 4 4 4 4 4 3 3 3 3 3 3 3 3 3 2 2 2 2 2 2 2 2 1 1 1 1 0 -0 -1 -1 -1 -2 -2 -2 -3 -3 -3 -3 -3 -3 -3 -3 -3 -3 -3 -3 -3 -3 -3 -3 -3 -2 -2 -2 -2 -2 -2 -2 -2 -2 -2 -2
5 5 5 5 5 5 4 4 4 4 4 3 3 3 3 3 3 3 3 2 2 2 2 2 2 2 2 1 1 1 1 1 0 -0 -1 -1 -2 -2 -2 -3 -3 -3 -3 -3 -3 -3 -3 -3 -3 -3 -3 -3 -3 -3 -3 -3 -3 -2 -2 -2 -2 -2 -2 -2 -1 -1 -1 -2 -2
5 5 5 5 5 4 4 4 4 4 3 3 3 3 3 3 3 2 2 2 2 2 2 2 2 2 1 1 1 1 1 0 -0 -0 -1 -2 -2 -2 -3 -3 -3 -3 -3 -3 -3 -3 -3 -3 -2 -2 -2 -2 -2 -3 -3 -3 -3 -2 -2 -2 -2 -2 -1 -1 -1 -1 -1 -1 -1
5 5 5 5 4 4 4 4 4 3 3 3 3 3 3 2 2 2 2 2 2 2 2 2 1 1 1 1 1 1 0 -0 -1 -1 -2 -2 -3 -3 -3 -3 -3 -3 -3 -3 -2 -2 -2 -2 -2 -2 -2 -2 -2 -3 -3 -3 -2 -2 -2 -2 -2 -1 -1 -1 -1 -1 -1 -1 -1
Height
773 773 773 775 776 777 779 780 780 781 782 782 783 784 785 786 786 787 787 788 788 788 788 788 788 788 788 788 788 788 787 787 787 786 786 786 785 785 784 784 783 783 782 781 781 780 780 780 779 778 777 776 776 775 774 774 774 773 772 772 771 770 770 769 768 768 767 767 766
771 772 772 774 775 776 778 779 780 780 781 782 783 784 785 785 786 786 787 787 787 787 787 787 787 787 787 787 787 786 786 786 785 785 785 784 784 783 783 782 782 781 780 780 780 779 778 778 777 776 775 775 774 773 773 772 772 771 770 770 769 769 768 767 766 765 765 765 764
770 771 772 773 775 776 777 778 779 780 781 782 783 784 784 785 785 786 786 786 786 786 786 786 786 786 785 785 785 785 785 785 784 784 783 782 782 781 781 780 780 779 779 778 778 777 777 776 775 775 774 773 772 771 771 770 770 770 769 768 767 767 766 765 764 764 763 762 762
770 770 771 773 774 775 777 778 779 780 780 781 782 783 784 784 785 785 785 785 785 785 785 785 785 785 785 784 784 784 784 783 783 782 781 781 780 780 779 779 778 778 777 777 776 775 775 775 774 773 772 771 770 770 769 768 768 767 767 766 765 765 764 763 762 762 761 760 760
770 770 771 772 774 775 776 777 778 779 780 780 781 782 783 783 784 784 784 784 784 784 784 784 784 784 783 783 783 783 782 782 781 780 780 779 779 778 778 777 776 776 775 775 774 774 773 773 772 771 770 769 769 768 767 767 766 765 765 764 764 763 762 761 760 760 760 759 758
770 770 771 772 774 775 775 776 778 778 779 780 781 781 782 782 782 783 783 783 783 783 783 783 783 782 782 782 782 781 780 780 780 779 779 778 777 776 776 775 775 774 774 773 772 772 771 771 770 769 768 767 766 765 765 765 764 764 763 762 761 761 760 760 759 759 758 757 757
770 771 772 773 774 775 775 776 777 778 779 780 780 780 781 781 781 781 781 781 781 781 781 782 781 781 781 780 780 780 779 779 778 777 777 776 775 775 774 774 773 772 772 771 770 770 769 769 768 767 766 765 764 764 763 763 762 762 761 760 760 759 759 758 758 757 756 755 755
770 771 772 773 774 775 775 776 777 778 779 779 779 779 779 780 780 780 780 780 780 780 780 780 780 780 780 779 779 778 778 777 776 776 775 775 774 773 772 772 771 770 770 769 769 768 767 767 766 765 764 763 762 761 761 761 760 760 759 758 758 757 757 756 756 755 755 754 754
769 770 771 772 773 774 775 776 777 777 777 777 778 778 778 778 778 779 779 779 779 779 779 779 778 778 778 777 777 776 776 775 775 774 773 773 772 771 770 770 769 768 768 767 766 766 765 765 764 763 762 761 760 759 759 759 758 758 757 756 756 755 755 755 754 754 753 753 752
768 769 770 772 773 774 775 775 776 776 776 776 776 776 777 777 777 777 777 777 777 777 777 777 777 776 776 775 775 775 774 773 773 772 771 770 770 769 768 768 767 766 765 765 765 764 763 763 762 761 760 759 758 757 757 757 756 756 755 755 754 753 753 752 752 752 751 751 750
767 768 770 771 772 773 773 774 774 775 775 775 775 775 776 776 776 776 776 776 776 776 775 775 775 775 775 774 773 773 772 772 771 770 769 769 768 767 766 766 765 764 764 763 762 762 761 760 760 759 758 757 756 756 755 755 754 754 753 753 752 751 751 750 750 750 749 749 748
766 767 769 770 770 771 772 772 773 773 773 774 774 774 775 775 775 775 775 775 775 774 774 774 774 773 773 772 772 771 770 770 769 768 767 767 766 765 765 764 763 762 762 761 760 760 760 759 758 757 756 755 755 754 753 753 752 752 751 750 750 750 749 748 748 748 747 747 746
765 766 767 768 769 770 770 770 771 771 772 772 773 773 773 773 773 773 773 773 773 773 772 772 772 772 771 770 770 769 769 768 767 766 766 765 764 763 763 762 761 760 760 759 759 758 757 756 756 755 754 753 753 752 751 751 750 750 749 749 748 747 747 746 746 746 745 745 744
765 766 766 767 767 768 768 769 770 770 771 771 771 772 772 772 772 772 772 772 771 771 771 771 770 770 770 769 768 768 767 766 765 765 764 763 762 761 760 760 759 758 758 757 757 756 755 755 754 753 752 751 750 750 749 749 749 748 747 747 746 745 745 744 744 744 743 742 742
765 765 765 766 766 766 767 768 769 769 770 770 770 771 771 771 771 770 770 770 770 770 770 770 769 769 768 767 767 766 765 765 764 763 762 761 760 760 759 758 757 756 756 755 754 754 753 752 751 751 750 749 748 748 747 747 746 746 745 745 744 743 742 742 742 741 741 740 740
764 765 765 765 765 765 766 767 768 768 769 769 769 770 770 770 769 769 769 769 769 769 768 768 768 767 766 766 765 765 764 763 762 761 760 759 758 757 756 756 755 754 754 753 752 751 751 750 749 749 748 747 746 745 745 744 744 743 743 742 741 741 740 740 740 739 739 738 738
764 764 764 764 764 765 765 766 767 768 768 768 768 768 768 768 768 768 768 768 768 767 767 766 766 765 765 764 764 763 762 761 760 759 758 757 756 755 755 754 753 752 751 751 750 749 748 747 747 746 745 745 744 743 743 742 741 741 740 740 739 739 738 738 738 737 737 736 735
762 763 763 763 763 764 764 765 766 766 766 766 766 767 767 767 767 767 767 766 766 766 765 765 765 764 764 763 762 762 761 760 759 758 757 755 755 754 753 752 751 750 750 749 748 747 746 745 745 744 743 742 742 741 740 740 739 738 738 737 737 736 736 736 735 735 735 734 733
761 761 762 762 762 763 763 764 764 764 765 765 765 765 765 765 766 765 765 765 765 764 764 763 763 762 762 761 760 760 759 758 757 756 755 754 753 751 750 750 749 748 747 746 745 745 744 743 742 741 741 740 739 739 738 737 736 736 735 735 735 734 734 734 733 733 733 732 731
760 760 760 761 761 761 762 762 762 763 763 764 764 764 764 764 764 764 764 763 763 763 762 762 761 760 760 759 758 757 756 755 755 753 752 751 750 750 748 747 746 745 745 744 743 742 741 740 740 739 739 738 737 736 735 735 734 733 733 733 732 732 732 732 731 731 730 730 729
759 759 760 760 760 760 760 761 761 762 762 763 763 763 763 763 763 763 762 762 761 761 760 760 759 758 757 756 756 755 754 753 752 751 750 749 748 747 746 745 744 743 742 741 740 740 739 738 738 737 736 735 734 733 732 732 731 731 730 730 730 730 730 730 729 729 728 727 726
758 759 759 759 759 759 760 760 760 761 761 762 762 762 762 761 761 761 760 760 760 759 759 758 757 756 755 755 754 752 751 750 750 749 748 747 746 745 744 743 742 741 740 739 738 737 736 736 735 734 733 732 731 730 730 730 729 729 729 728 728 728 727 727 726 726 725 724 723
758 758 758 758 758 759 759 760 760 760 760 760 760 760 760 760 760 759 759 758 758 757 757 756 755 754 753 752 751 750 749 748 747 746 745 745 744 742 741 741 740 739 737 736 735 735 734 733 732 731 730 730 729 728 728 727 727 727 726 726 726 725 725 724 724 723 722 721 720
757 757 758 758 758 758 759 759 759 760 760 759 759 759 758 758 758 757 757 756 756 755 755 754 753 752 751 750 749 748 747 746 745 744 743 742 741 740 739 738 737 736 735 734 733 732 731 731 730 729 728 727 727 726 726 725 725 725 725 724 723 723 722 721 720 720 719 718 717
757 757 757 757 757 758 758 758 758 758 758 758 758 757 757 756 756 755 755 755 754 753 753 752 751 750 749 748 747 746 745 743 742 741 740 739 738 738 737 735 735 733 732 731 730 730 729 729 728 727 726 725 725 724 724 724 723 723 722 722 721 720 719 718 717 716 715 715 714
756 756 756 757 757 757 757 757 757 757 757 757 756 756 755 755 754 754 753 753 752 751 751 750 749 748 747 746 745 743 742 741 740 739 738 737 735 735 734 733 732 731 730 728 727 727 726 726 726 725 725 724 723 722 722 721 721 720 720 719 719 718 716 715 714 713 712 711 710
755 755 755 756 756 756 756 756 756 756 755 755 755 754 754 753 753 752 751 751 750 749 749 748 746 745 745 743 742 741 740 739 738 736 735 734 733 732 731 730 729 728 727 726 725 725 724 724 723 723 722 722 721 720 720 719 718 718 717 717 716 715 714 712 711 710 709 708 707
755 755 755 755 755 755 755 755 755 755 754 754 753 753 752 752 751 751 750 749 748 747 746 745 744 743 742 741 740 738 737 736 735 734 733 732 731 730 729 728 726 725 724 724 723 722 722 721 721 720 720 720 719 718 718 717 716 715 715 714 713 712 711 710 708 707 706 705 704
754 754 754 754 754 754 754 754 754 753 753 752 752 752 751 750 750 749 748 747 746 745 744 743 742 741 740 739 737 736 735 734 733 732 731 730 728 727 726 725 724 723 722 721 721 720 720 719 719 718 718 718 717 717 715 715 714 713 712 711 710 709 708 706 705 704 703 702 701
753 753 753 753 753 753 753 753 752 752 752 751 751 750 750 749 748 747 746 745 744 743 742 741 740 739 738 737 735 734 733 732 730 730 728 727 726 725 724 723 722 720 720 719 719 718 717 716 716 716 715 715 715 715 714 712 711 710 709 708 707 706 705 704 703 701 700 699 698
751 751 752 752 752 752 752 751 751 751 750 750 750 749 748 747 746 745 745 743 742 741 740 739 738 737 736 735 733 732 731 730 728 727 726 725 724 723 721 720 719 718 717 717 716 715 715 715 714 714 714 713 713 712 711 710 709 707 706 705 704 703 702 701 700 699 698 697 696
750 750 750 750 750 750 750 750 750 750 750 749 748 748 747 746 745 744 743 742 740 739 738 737 736 735 734 732 731 730 729 727 726 725 724 723 722 720 719 718 717 716 715 715 714 714 713 713 712 712 711 710 710 709 708 707 705 704 703 702 700 700 699 698 697 695 695 694 693
749 749 749 749 749 749 749 749 749 749 748 748 747 746 745 744 743 742 741 740 739 738 736 735 734 733 732 730 729 728 727 725 724 723 722 721 720 719 717 716 715 714 714 713 712 712 711 710 710 709 708 708 707 706 705 704 702 701 700 698 697 696 695 695 693 692 691 690 690
748 748 748 748 748 748 748 748 748 747 747 746 745 744 743 742 741 740 739 738 737 736 735 734 732 731 730 729 727 726 725 724 722 721 720 719 718 717 715 714 713 712 712 711 710 710 709 708 707 706 706 705 704 703 702 700 699 698 696 695 694 693 692 691 690 689 688 687 686
747 747 747 747 747 747 747 747 746 746 745 744 743 742 741 740 740 738 737 736 735 734 733 732 730 729 728 727 725 724 723 722 720 720 718 717 716 715 714 713 712 711 710 709 708 707 706 705 705 704 703 702 701 700 699 697 696 695 693 692 691 690 689 687 686 685 684 683 682
746 746 746 746 747 746 746 745 745 744 743 742 741 741 740 739 738 737 735 735 733 732 731 730 729 727 726 725 724 722 721 720 719 717 716 715 715 714 712 711 710 709 708 707 706 705 704 703 702 701 701 700 699 697 696 695 693 692 690 689 688 686 685 684 683 681 680 680 679
745 745 745 745 745 745 745 744 743 743 742 741 740 739 738 737 736 735 734 733 732 730 729 728 727 725 724 723 722 720 719 718 717 716 715 714 713 712 711 709 708 707 706 705 704 703 702 701 700 699 698 697 696 695 693 692 690 689 687 686 685 683 682 680 679 678 676 675 675
744 745 745 745 744 744 743 743 742 741 740 739 738 737 736 735 734 733 732 732 730 729 728 726 725 724 722 721 720 719 717 716 715 715 713 712 711 711 710 708 706 705 704 703 701 700 699 698 697 696 696 695 694 692 691 689 688 686 685 683 681 680 678 677 675 674 673 671 670
744 744 744 743 743 742 742 741 740 740 739 738 737 736 735 734 733 732 731 730 729 728 726 725 723 722 720 719 718 717 715 715 714 713 712 711 710 709 708 706 704 703 701 700 699 698 697 696 695 694 693 692 691 690 688 687 685 684 682 680 679 677 675 674 673 671 670 668 667
743 743 743 742 742 741 740 740 739 738 737 736 735 735 734 733 732 730 730 729 728 726 725 723 721 720 719 718 716 715 714 713 712 711 710 710 708 707 706 705 703 700 699 698 697 695 695 693 692 691 691 690 689 688 686 685 683 681 679 678 676 674 673 671 670 669 667 665 665
742 742 741 741 740 740 739 738 737 737 736 735 734 733 732 731 730 729 728 727 726 725 723 721 720 718 717 716 715 713 712 711 710 710 709 708 707 705 704 702 700 699 697 695 695 693 692 691 690 689 689 688 686 685 684 682 680 679 677 675 674 672 670 669 668 666 665 664 662
Wind_Speed
13 11 11 11 10 10 9 9 8 8 6 5 5 5 5 6 6 6 6 7 7 8 9 11 12 13 13 14 14 15 15 16 16 17 18 19 20 21 21 21 21 21 21 21 21 21 21 20 20 20 20 20 20 20 20 20 20 20 21 22 23 23 24 25 26 26 27 28 28
12 12 12 13 13 11 10 8 9 9 7 6 5 5 5 5 5 6 7 7 8 10 11 12 13 14 14 15 15 15 15 16 17 19 20 20 21 21 21 21 21 21 21 20 20 20 20 20 20 20 20 20 20 21 21 20 20 21 21 22 23 23 24 25 25 26 27 27 28
13 13 13 13 13 11 9 8 9 9 8 7 6 5 5 4 5 6 7 8 10 11 12 12 13 14 14 14 14 14 15 17 18 20 21 21 21 21 21 21 21 21 21 21 21 21 21 21 21 21 21 21 21 21 21 21 21 21 22 23 23 23 23 24 24 25 25 26 26
13 13 13 13 12 12 10 9 9 9 8 7 6 5 4 4 5 7 8 9 10 11 11 12 13 13 13 12 13 15 16 18 19 20 21 21 21 21 21 21 21 21 21 21 21 22 22 22 22 21 21 21 22 22 22 21 21 22 22 23 23 23 23 24 24 24 24 25 25
13 12 12 12 12 12 11 9 9 8 7 6 5 4 4 5 7 8 9 9 10 11 12 13 13 13 12 13 15 17 18 19 20 20 20 21 21 21 21 21 21 21 21 21 22 22 22 22 22 22 22 22 22 22 22 22 22 22 23 23 23 23 23 23 24 24 24 24 25
12 12 11 11 10 10 9 8 7 6 5 5 4 4 6 7 8 9 10 11 12 13 13 14 13 13 14 15 17 18 19 19 19 19 20 20 20 21 21 21 22 22 22 22 22 22 22 22 22 22 22 22 22 22 22 22 23 23 23 23 23 23 23 23 24 24 24 25 25
11 11 10 10 9 8 8 7 6 5 4 4 5 6 7 8 9 10 11 12 13 13 14 14 14 15 16 17 18 18 19 19 19 20 20 20 21 21 21 22 22 22 23 23 23 23 23 22 22 22 22 22 22 22 22 22 23 23 23 24 23 23 23 24 24 24 24 25 26
12 11 10 10 9 8 7 7 6 5 5 5 6 7 8 8 9 10 11 12 13 14 14 14 15 16 17 18 18 19 19 19 20 20 20 21 21 22 22 22 23 23 23 23 23 23 23 23 22 22 22 22 22 22 22 23 23 24 24 24 24 24 24 24 24 24 25 26 27
12 11 11 10 9 8 7 6 5 5 5 6 6 7 8 9 10 11 11 12 13 14 15 15 16 17 17 18 18 19 19 20 20 20 21 21 22 22 22 23 23 23 23 23 23 23 23 23 23 23 23 23 23 23 23 24 24 25 25 25 26 26 26 26 26 26 27 27 28
12 12 11 10 9 8 7 6 5 5 5 6 8 9 10 10 11 11 12 13 13 14 15 15 16 17 17 18 19 19 19 20 20 21 21 21 22 22 23 23 23 23 23 23 23 23 23 23 23 23 24 24 24 25 25 26 26 26 27 26 26 27 27 28 28 28 28 29 29
13 12 11 9 8 7 6 5 5 6 7 8 9 10 11 11 12 12 13 13 14 15 15 16 16 17 18 18 19 19 20 20 20 21 21 22 22 23 23 24 24 24 24 24 24 24 23 23 24 24 25 25 26 26 27 27 27 28 28 28 28 29 29 30 30 30 30 30 30
13 12 10 8 7 6 5 5 6 7 8 9 10 11 11 12 13 13 14 15 15 16 16 17 17 18 19 19 19 20 20 21 21 22 22 23 23 24 24 24 25 25 25 25 25 24 24 24 25 25 26 27 27 27 27 27 28 28 29 30 30 30 31 31 31 31 31 31 31
12 10 9 7 6 5 5 6 7 8 9 10 10 11 12 13 13 14 15 15 16 16 17 17 18 18 18 19 19 20 20 21 21 22 23 23 24 24 25 25 25 26 26 26 25 25 25 25 26 27 27 28 28 28 28 28 28 29 29 30 30 31 31 32 32 32 32 32 32
10 8 6 6 5 5 6 7 8 9 10 10 11 12 12 13 13 14 14 15 16 16 17 17 18 18 18 19 19 20 21 21 22 23 23 24 24 25 25 26 26 26 26 26 25 25 26 26 27 27 28 29 29 29 29 29 29 30 30 30 31 31 32 32 32 32 32 32 33
7 6 6 5 5 6 7 8 9 9 10 11 11 12 12 13 13 14 14 15 16 16 17 17 18 18 19 19 20 21 21 22 23 23 24 25 25 26 26 26 26 26 26 26 26 26 26 27 28 28 29 29 30 30 30 30 30 30 31 31 31 32 32 32 32 32 32 32 33
6 6 6 6 6 6 7 8 9 10 10 11 12 12 13 13 13 14 14 14 15 16 17 17 18 19 19 20 20 21 21 22 23 23 24 25 25 25 26 26 26 26 26 27 27 27 27 28 28 28 29 29 30 30 30 31 31 31 31 32 32 32 33 33 32 32 32 32 33
6 6 7 7 7 7 8 9 10 11 11 12 12 13 13 13 13 14 14 15 15 16 17 18 19 19 20 20 21 21 22 22 23 23 24 25 25 25 26 26 26 26 27 27 27 28 28 28 28 29 29 29 30 30 31 31 31 32 32 32 32 32 33 33 32 32 32 32 33
7 7 7 7 8 9 10 11 11 12 13 13 13 13 13 13 14 14 15 15 16 17 18 19 19 20 20 21 21 22 22 23 24 24 25 25 26 26 26 27 27 27 27 27 28 28 28 29 29 29 29 30 30 30 31 31 31 32 32 32 32 32 32 32 31 31 31 31 31
8 8 8 9 9 10 11 12 13 13 13 13 13 13 13 14 14 15 16 16 17 18 18 19 20 20 21 22 22 23 23 24 25 26 26 26 27 27 27 27 27 27 28 28 28 28 29 29 29 29 29 30 30 31 31 31 31 31 31 31 31 31 31 30 30 30 30 30 31
8 9 9 9 10 11 12 12 12 13 13 13 13 13 14 14 15 16 17 17 18 18 19 19 20 21 22 23 23 24 25 25 26 26 27 27 27 27 27 27 28 28 28 28 28 29 29 29 29 29 29 30 30 31 31 31 31 31 30 29 29 29 29 30 30 30 31 31 32
8 9 9 10 10 11 12 12 12 12 13 13 13 14 14 15 16 17 17 18 18 18 19 20 21 22 23 24 24 25 26 26 26 26 26 27 27 27 27 28 28 28 28 28 28 28 28 29 29 29 29 30 30 30 30 30 30 29 28 28 28 29 29 30 30 30 31 31 32
8 9 10 10 11 11 11 12 12 12 13 13 14 14 15 16 16 17 17 18 18 19 20 21 22 23 24 24 25 26 26 26 26 26 26 26 27 27 27 27 27 27 28 28 28 28 28 28 28 29 29 29 30 30 29 28 27 26 26 26 27 28 29 29 29 30 30 30 31
9 10 10 11 11 11 11 12 12 13 14 14 14 15 15 16 17 17 18 18 19 20 21 22 23 24 24 25 25 26 27 27 27 27 27 27 27 27 27 27 27 27 28 28 27 27 27 27 28 28 28 28 28 27 26 25 24 24 25 26 26 27 28 28 29 29 30 30 30
10 11 11 11 11 11 12 12 13 14 14 15 15 15 16 16 17 18 18 19 20 21 22 22 23 24 25 26 26 27 27 27 28 28 28 27 27 27 27 27 27 27 27 27 27 26 26 26 26 26 26 26 26 25 24 24 24 25 26 26 27 27 28 28 29 29 29 30 30
11 11 12 12 12 12 12 13 13 14 15 15 16 16 17 17 18 18 19 19 20 21 22 23 24 25 25 26 26 27 27 27 27 27 27 27 27 26 26 26 26 26 26 26 26 27 27 27 26 26 26 26 25 25 25 25 26 26 26 27 27 28 28 29 29 29 29 30 30
12 12 12 12 12 12 13 13 14 14 15 16 16 17 17 18 18 19 19 20 21 22 23 24 24 25 25 25 26 26 26 26 26 26 26 26 26 26 26 26 26 26 26 26 27 27 28 28 27 26 24 24 24 24 25 25 26 25 25 26 27 27 28 29 29 29 29 29 30
12 12 13 12 13 13 13 14 14 15 15 16 17 17 18 18 19 19 20 21 22 23 23 24 24 24 24 24 24 25 25 25 25 25 26 26 26 27 27 27 27 26 26 27 27 28 28 27 27 25 24 22 23 24 25 25 25 25 25 26 27 27 28 29 29 30 30 30 30
13 13 13 13 13 13 14 14 15 15 16 16 17 17 18 19 20 20 21 22 23 24 24 23 23 23 23 23 24 24 25 25 25 26 26 27 27 27 28 27 27 27 27 28 28 28 28 27 26 25 24 23 24 25 26 26 26 25 25 26 26 27 28 28 29 29 29 29 29
13 13 13 13 14 14 14 14 15 15 16 16 17 17 18 19 20 21 22 23 23 24 24 23 23 23 23 24 25 25 26 26 26 27 27 27 27 28 28 28 28 28 28 28 28 27 27 26 25 25 25 25 25 25 26 25 25 25 25 25 25 26 26 27 27 28 28 28 28
14 14 14 14 14 14 14 14 15 15 15 16 17 18 19 20 21 22 23 23 24 24 24 24 24 24 25 25 26 26 27 27 27 27 27 27 27 28 28 28 28 28 28 28 27 26 26 26 26 26 27 27 26 26 26 26 25 25 25 25 26 26 27 27 28 28 28 28 28
14 14 14 14 14 14 14 15 15 15 16 16 17 19 20 21 22 22 23 24 24 24 24 25 25 25 26 26 27 27 27 27 27 27 27 27 27 28 28 28 28 28 27 27 26 26 26 26 26 27 27 27 27 26 26 26 26 26 26 26 27 27 28 28 28 29 29 30 29
15 14 14 14 14 14 14 15 15 15 16 17 18 19 20 21 22 23 23 24 24 24 25 25 25 26 26 26 26 27 27 27 27 27 27 27 27 28 28 28 28 27 26 26 26 26 27 27 27 27 27 27 27 27 27 27 27 27 28 28 29 29 29 28 29 30 30 30 30
14 13 13 13 13 14 14 14 15 16 17 18 19 20 21 22 23 23 24 24 24 24 24 25 25 25 26 26 26 27 27 27 27 27 27 27 27 27 28 27 27 26 25 25 26 26 27 28 28 28 28 28 28 28 28 28 27 27 27 28 28 28 29 29 30 30 31 31 31
13 12 13 13 13 14 14 14 15 16 17 18 19 20 21 22 23 23 24 24 24 24 24 24 25 25 25 26 26 26 27 26 26 26 26 27 27 27 27 27 26 25 25 26 27 27 28 28 28 28 28 29 29 28 28 28 27 27 27 27 28 28 29 29 30 31 31 31 31
12 12 13 13 13 14 14 15 16 17 18 19 20 21 21 22 23 23 24 24 24 24 24 24 25 25 25 26 26 26 26 26 26 26 26 26 26 26 27 27 26 26 26 27 27 28 28 28 28 29 29 29 28 27 27 26 26 26 26 27 27 28 29 29 30 30 30 31 31
12 11 11 12 13 14 15 16 17 18 19 19 20 21 22 22 23 23 23 23 23 24 24 24 25 25 25 26 26 25 26 26 26 26 26 25 25 26 26 26 26 27 27 27 27 28 28 28 28 29 28 28 27 26 25 25 24 25 25 26 26 27 28 29 29 29 30 30 30
10 10 10 11 13 15 16 16 17 18 19 20 21 21 22 23 23 23 23 23 23 23 24 24 25 25 25 25 25 26 25 25 25 25 25 25 25 25 25 26 27 27 27 27 27 28 28 28 28 29 28 27 26 25 24 24 23 23 24 25 26 26 27 27 28 28 29 30 30
10 10 12 13 14 15 16 17 18 19 20 21 21 22 22 22 22 22 22 22 22 23 24 24 25 25 25 26 26 26 26 25 25 24 24 24 24 24 25 26 27 27 27 27 27 28 28 28 29 29 28 27 25 24 23 23 23 23 23 24 25 25 25 25 26 26 27 28 29
10 12 13 14 15 16 17 17 18 19 20 21 21 21 22 22 22 22 22 22 22 23 24 24 25 25 26 26 26 26 25 25 24 23 23 23 24 24 25 26 27 27 28 28 28 28 29 29 29 29 28 27 26 25 23 22 22 23 23 23 23 24 25 25 24 25 25 26 27
11 13 14 15 15 16 17 18 19 19 20 20 20 21 21 21 21 22 22 22 22 22 23 24 25 26 26 25 25 25 25 24 23 23 22 23 24 25 25 26 27 27 28 28 28 28 28 28 28 28 28 27 25 24 23 22 22 22 22 22 22 22 23 23 23 23 24 25 26
12 13 14 15 15 16 17 18 19 19 19 19 20 20 21 21 21 21 21 22 22 23 23 24 25 25 25 25 25 24 24 24 23 23 23 24 25 25 25 25 26 27 27 27 27 27 27 27 28 28 27 27 26 24 23 22 21 21 21 21 21 21 21 22 22 22 22 22 23
Wind_Direction
201 188 182 183 187 189 193 201 195 188 186 191 199 206 213 222 233 245 255 264 270 274 277 280 282 284 285 286 287 288 288 290 292 293 295 296 296 295 295 293 291 289 287 285 284 283 282 281 280 279 278 277 277 276 276 275 274 274 273 273 273 272 272 272 271 271 270 270 269
182 179 184 194 198 197 193 187 189 190 191 198 202 207 216 229 243 255 265 271 276 279 282 283 284 284 285 286 287 287 288 290 292 294 294 295 295 294 293 292 290 287 286 284 283 282 281 280 279 278 278 277 277 276 276 275 274 273 273 272 272 272 272 271 271 270 270 270 269
182 189 194 195 194 189 182 181 190 195 198 202 199 203 216 235 254 266 273 276 280 282 283 284 285 285 286 286 286 286 288 290 292 293 294 293 293 292 291 290 289 287 285 284 282 281 280 279 278 277 277 276 276 276 275 275 274 273 273 273 273 272 272 271 271 270 270 269 268
189 190 188 187 184 184 187 187 192 196 197 196 192 195 214 245 262 271 275 279 281 282 283 284 286 287 287 287 286 286 287 289 291 291 292 292 291 290 289 288 287 286 285 283 282 281 280 279 278 277 276 276 275 275 274 274 274 273 273 273 273 272 272 271 271 270 269 269 268
187 182 179 180 183 187 190 190 191 191 187 181 187 208 239 259 268 274 277 281 282 284 285 287 289 289 287 286 285 286 288 289 289 290 290 289 289 288 287 286 285 284 283 282 281 279 279 278 277 276 275 274 274 273 273 273 273 272 272 272 272 271 271 271 270 270 269 268 267
176 173 173 175 178 180 181 178 176 172 173 183 208 239 258 268 274 278 281 284 285 286 287 288 287 286 284 284 285 286 287 288 288 287 287 287 286 286 285 284 283 282 282 280 280 279 278 277 276 275 274 273 272 271 271 271 271 271 271 271 270 270 269 269 269 269 268 267 267
170 167 167 170 168 163 160 161 164 169 183 208 235 254 267 275 279 282 284 285 286 286 286 284 283 282 282 283 285 286 286 286 286 285 285 284 284 284 283 282 282 281 280 280 279 278 277 276 275 274 273 272 272 271 270 269 269 269 269 269 269 269 268 268 268 268 267 267 267
170 167 167 167 162 159 160 166 177 195 216 237 255 268 277 280 280 281 282 283 282 282 281 280 279 280 281 282 283 283 284 284 283 283 282 281 281 281 281 280 280 279 279 278 278 277 277 276 274 273 273 272 272 271 270 269 269 268 268 268 269 268 268 267 267 267 266 266 266
167 166 164 162 161 163 170 180 196 217 239 258 273 280 283 282 280 278 277 277 276 277 277 276 277 277 278 279 279 280 280 280 280 279 279 279 278 278 278 278 278 277 277 277 276 276 275 275 273 273 272 271 271 271 270 270 269 269 268 268 268 268 267 266 266 266 266 266 266
163 163 164 165 168 174 184 200 221 243 262 276 283 285 284 282 279 276 274 274 272 272 273 273 274 275 276 276 276 276 276 276 276 277 276 276 276 277 277 277 277 276 276 276 276 276 275 275 273 272 271 271 270 271 271 270 270 269 269 268 268 267 267 266 266 266 266 265 265
162 163 167 173 180 190 205 227 250 267 278 283 284 284 283 280 278 276 275 275 273 272 273 273 274 275 276 276 276 276 276 276 276 276 277 277 277 277 277 277 277 277 277 277 277 276 276 275 273 272 271 271 271 271 271 270 269 269 268 268 267 267 267 266 266 265 266 265 265
163 167 172 180 193 209 231 252 268 278 282 282 282 282 281 279 278 277 277 276 275 275 275 276 277 277 278 278 278 278 278 278 278 278 278 278 278 278 278 277 277 277 277 277 276 276 275 274 273 272 271 270 270 270 270 269 269 268 268 267 267 266 266 266 266 265 265 266 265
166 170 179 194 213 234 253 267 276 280 281 280 279 279 279 278 278 277 277 277 276 277 278 278 279 279 279 279 280 280 279 280 279 279 279 279 279 278 278 278 277 277 277 276 275 274 273 272 271 271 270 270 270 269 268 268 268 267 267 267 266 266 266 266 266 266 266 266 266
171 182 199 220 238 254 266 273 277 279 279 278 277 277 277 277 277 277 276 276 277 277 279 280 280 280 280 280 280 280 280 280 280 280 280 279 279 278 278 277 277 276 276 275 274 272 271 270 270 270 270 269 269 268 268 267 267 267 267 267 267 266 266 266 266 266 266 266 266
194 212 229 243 255 263 269 273 275 276 276 275 274 275 275 275 276 276 276 276 277 278 279 280 280 280 280 280 280 280 280 280 280 280 280 279 279 278 278 277 277 276 275 274 273 272 270 269 269 269 269 269 269 268 268 267 267 266 266 266 266 267 267 267 267 267 267 267 267
221 237 248 256 261 264 266 268 270 270 271 271 271 272 272 273 275 276 277 277 278 278 279 279 280 281 281 281 280 280 281 281 281 280 280 280 279 279 278 277 277 276 276 275 273 272 271 269 269 268 268 268 268 268 268 267 267 267 266 266 267 267 267 267 268 268 268 267 267
239 248 255 260 261 261 262 262 263 264 265 266 268 269 270 272 275 277 278 278 278 279 279 279 280 281 282 282 282 282 282 282 281 281 280 280 280 280 279 278 278 277 276 275 274 273 272 270 269 269 268 267 267 268 268 268 267 267 267 267 267 267 267 268 268 268 268 268 268
247 252 256 258 259 258 258 257 257 258 260 263 265 268 270 272 275 277 278 279 279 279 279 280 280 281 282 283 284 284 283 282 282 281 280 280 280 280 279 278 278 277 276 275 274 274 273 272 271 270 269 268 268 268 268 268 268 268 267 267 267 268 268 268 268 269 269 268 268
250 253 255 256 256 255 254 253 254 256 259 262 266 268 271 273 276 278 279 279 279 279 280 281 281 282 283 283 284 284 284 283 282 281 280 280 279 279 279 278 278 277 276 275 274 274 273 272 271 271 270 269 269 268 268 267 267 267 267 268 268 268 269 269 269 269 269 268 268
251 254 255 256 256 254 253 253 254 257 260 264 267 270 273 275 277 278 278 279 280 280 281 282 282 283 283 283 284 284 284 284 283 282 281 280 279 278 278 278 277 277 276 275 275 274 273 273 272 271 271 270 269 269 268 268 267 268 268 269 270 270 270 270 270 269 268 267 266
254 257 258 258 257 256 255 255 257 260 263 266 269 271 274 276 277 277 277 279 280 281 281 282 283 284 284 285 285 286 286 285 284 283 281 279 279 278 278 278 277 277 276 275 274 273 273 272 272 272 271 271 270 270 269 269 269 270 270 271 271 271 271 270 269 268 267 265 264
259 262 263 262 260 258 257 257 259 262 265 268 270 272 274 275 276 277 278 279 280 281 282 283 285 285 286 286 287 287 287 286 284 282 280 279 278 278 277 277 277 276 275 274 274 273 273 273 272 272 272 272 271 271 270 270 271 271 272 272 272 271 270 269 268 267 266 264 264
265 266 265 263 261 259 258 259 261 264 267 269 271 273 274 276 277 278 279 281 281 283 284 285 286 287 287 287 287 287 286 285 283 281 280 279 278 278 277 277 276 275 274 274 274 274 274 274 274 273 273 273 273 273 272 272 273 273 273 273 273 272 271 269 268 266 265 264 264
268 267 265 262 259 258 258 260 263 266 269 272 274 276 278 279 280 281 282 283 284 285 286 286 287 287 288 287 286 286 285 284 282 281 280 279 278 278 278 277 276 276 275 274 274 273 273 274 275 275 275 275 275 275 275 275 275 275 275 275 274 273 271 269 268 266 265 264 264
267 265 262 259 257 257 258 261 265 268 272 275 278 281 282 284 285 286 286 286 286 287 287 287 288 288 288 287 286 285 284 282 281 280 280 279 279 278 278 277 277 276 276 275 274 273 273 273 273 274 275 276 276 276 276 275 275 274 274 273 272 272 271 269 267 266 265 264 264
264 261 258 256 255 256 259 263 267 271 275 279 282 284 285 287 288 289 290 290 289 289 289 289 289 288 287 286 286 284 283 281 280 280 280 280 280 280 279 279 278 278 277 276 275 275 274 274 273 274 275 276 276 276 276 275 275 273 272 271 270 270 269 269 268 267 266 265 264
259 257 255 254 255 257 261 265 270 274 278 281 284 286 288 290 292 292 292 292 291 291 291 290 289 288 287 285 285 283 282 282 282 282 282 282 282 281 281 280 280 279 278 277 277 277 277 276 276 276 277 278 278 278 278 277 276 274 272 271 269 268 268 268 268 268 267 266 265
257 255 254 254 256 260 264 269 273 277 280 283 285 288 291 293 294 294 293 293 292 293 293 292 291 289 288 287 286 286 285 285 285 284 284 283 283 282 282 282 281 280 280 279 279 279 279 279 279 280 281 282 282 281 280 278 277 275 272 271 269 268 267 267 268 268 268 267 267
256 255 255 255 257 261 266 270 274 278 281 285 288 291 293 293 294 294 293 293 294 294 294 294 293 292 291 290 289 289 288 287 286 286 285 285 284 284 283 283 283 282 282 282 282 282 282 283 284 285 285 285 284 282 280 278 276 274 272 271 269 268 268 268 268 268 268 268 267
256 255 255 256 259 262 267 271 276 280 284 287 290 292 293 294 294 294 294 294 295 295 295 295 294 293 291 290 290 289 289 288 288 288 287 287 286 286 285 285 285 285 284 284 285 285 286 287 287 287 286 285 284 281 279 277 275 273 272 270 269 268 268 268 268 268 268 268 268
255 255 256 257 260 264 269 275 279 283 286 289 291 292 294 294 294 295 295 296 296 296 296 295 294 292 291 291 290 290 290 290 290 290 289 289 288 287 287 287 286 286 286 286 287 288 288 288 289 288 286 284 282 279 277 275 273 272 271 270 269 268 268 267 268 268 268 268 268
252 254 257 260 263 268 274 279 283 286 289 290 292 293 293 294 295 295 296 296 296 296 296 295 294 293 292 292 292 292 291 291 291 290 290 289 289 289 288 288 288 288 288 288 289 289 289 289 288 287 285 283 281 278 276 275 273 272 271 270 269 268 268 267 267 267 267 266 266
251 256 261 265 270 275 280 284 287 289 290 291 292 293 294 294 296 296 296 296 296 296 295 295 294 294 294 294 293 293 293 292 291 291 290 290 289 289 290 290 290 290 290 290 290 289 289 288 287 285 284 283 281 279 277 276 274 272 272 271 270 269 267 267 266 266 265 265 264
252 258 264 270 275 280 284 287 289 290 291 292 292 293 294 295 296 296 296 296 296 296 295 295 294 294 294 294 294 293 293 292 291 291 291 290 291 291 291 291 291 291 291 291 290 289 289 288 287 285 285 284 282 281 279 277 275 273 272 271 271 270 268 267 266 266 264 264 263
256 262 268 273 278 282 285 288 289 291 292 292 293 294 295 295 296 296 296 297 297 296 296 295 295 294 294 294 293 293 292 292 292 291 291 292 292 293 293 293 292 292 291 291 290 289 288 288 287 286 286 285 283 282 280 279 277 275 273 272 271 271 270 268 267 265 264 263 262
267 272 276 279 281 283 284 287 289 291 292 293 294 294 295 295 296 296 297 298 297 297 296 296 296 295 295 294 294 293 293 293 293 293 293 293 294 295 294 294 293 292 292 291 290 289 289 288 288 287 287 286 284 283 281 280 278 276 276 274 273 272 271 269 267 265 263 262 260
278 282 285 284 284 284 286 288 290 292 293 294 294 295 296 297 297 298 298 299 299 298 297 297 296 296 295 295 295 294 294 294 294 294 295 295 296 296 295 295 294 293 292 291 290 290 289 288 288 287 287 286 284 283 282 281 279 278 277 276 275 274 272 270 268 266 263 261 258
285 288 289 289 289 289 290 291 292 293 294 295 296 297 297 298 298 299 299 299 299 298 297 297 296 296 296 296 296 295 295 295 295 295 296 296 297 297 296 295 294 293 292 292 291 290 289 288 288 287 286 285 284 283 283 281 280 279 278 277 277 276 274 272 271 269 266 262 259
293 294 294 295 294 293 293 293 294 294 295 296 297 298 298 299 299 299 299 299 298 297 297 297 296 297 297 297 297 296 296 296 296 296 297 298 298 297 296 294 293 293 292 291 291 290 289 289 288 287 287 285 284 284 283 281 280 279 278 277 277 277 278 277 277 275 273 270 266
297 297 297 296 295 295 295 295 295 296 297 297 298 299 299 299 299 299 299 299 298 297 297 297 297 297 297 298 297 297 297 297 298 298 299 299 298 297 295 293 292 291 291 291 290 290 289 288 288 288 287 286 285 284 283 281 280 279 278 278 279 282 284 286 285 283 281 278 275
297 297 296 296 295 295 296 296 297 297 298 298 299 299 299 299 299 299 299 299 299 298 298 298 298 298 298 298 298 298 298 299 300 300 300 299 298 296 294 292 291 291 291 291 290 290 289 289 288 288 288 287 286 284 283 281 279 279 280 282 286 290 293 294 293 290 286 283 280